• In Uzbekistan
  • List of Countries
  • For 7 days
  • Water Temperature
  • Satellite Maps
  • Weather Map
  • Weather Widgets
  • user-avatar
    Login

    Hourly Weather Lokiec

    Today, 21 April, Saturday

    Time Temperature Precipitation Wind Pressure Humidity
    00:00 +7°C° 0 mm 1 mps 708 mmHg 77%
    01:00 +7°C° 0 mm 1 mps 708 mmHg 77%
    02:00 +6°C° 0 mm 1 mps 708 mmHg 75%
    03:00 +6°C° 0 mm 1 mps 707 mmHg 73%
    04:00 +6°C° 0 mm 1 mps 707 mmHg 71%
    05:00 +6°C° 0 mm 1 mps 707 mmHg 70%
    06:00 +7°C° 0 mm 2 mps 707 mmHg 65%
    07:00 +9°C° 0 mm 2 mps 707 mmHg 60%
    08:00 +12°C° 0 mm 2 mps 707 mmHg 56%
    09:00 +13°C° 0 mm 3 mps 707 mmHg 52%
    10:00 +16°C° 0 mm 3 mps 707 mmHg 48%
    11:00 +18°C° 0 mm 4 mps 707 mmHg 44%
    12:00 +18°C° 0 mm 4 mps 706 mmHg 43%
    13:00 +19°C° 0 mm 4 mps 706 mmHg 43%
    14:00 +20°C° 0 mm 4 mps 706 mmHg 43%
    15:00 +20°C° 0 mm 4 mps 706 mmHg 46%
    16:00 +20°C° 0 mm 4 mps 705 mmHg 49%
    17:00 +19°C° 0 mm 4 mps 705 mmHg 53%
    18:00 +17°C° 0 mm 3 mps 705 mmHg 61%
    19:00 +14°C° 0 mm 3 mps 704 mmHg 69%
    20:00 +12°C° 0 mm 3 mps 704 mmHg 77%
    21:00 +13°C° 0 mm 2 mps 704 mmHg 78%
    22:00 +13°C° 0 mm 2 mps 705 mmHg 79%
    23:00 +12°C° 0 mm 1 mps 705 mmHg 81%

    Tomorrow, 22 April, Sunday

    Time Temperature Precipitation Wind Pressure Humidity
    00:00 +12°C° 0 mm 1 mps 705 mmHg 83%
    01:00 +12°C° 0 mm 1 mps 705 mmHg 85%
    02:00 +11°C° 0 mm 1 mps 705 mmHg 86%
    03:00 +11°C° 0 mm 1 mps 705 mmHg 88%
    04:00 +10°C° 0 mm 1 mps 705 mmHg 90%
    05:00 +9°C° 0 mm 1 mps 705 mmHg 92%
    06:00 +10°C° 0 mm 1 mps 705 mmHg 85%
    07:00 +12°C° 0 mm 1 mps 705 mmHg 79%
    08:00 +13°C° 0 mm 1 mps 706 mmHg 72%
    09:00 +14°C° 0 mm 1 mps 706 mmHg 63%
    10:00 +15°C° 0 mm 2 mps 706 mmHg 54%
    11:00 +17°C° 0 mm 2 mps 706 mmHg 45%
    12:00 +17°C° 0 mm 2 mps 706 mmHg 42%
    13:00 +18°C° 0 mm 3 mps 706 mmHg 40%
    14:00 +18°C° 0 mm 3 mps 705 mmHg 38%
    15:00 +18°C° 0 mm 3 mps 705 mmHg 39%
    16:00 +18°C° 0 mm 3 mps 705 mmHg 40%
    17:00 +18°C° 0 mm 3 mps 704 mmHg 42%
    18:00 +15°C° 0 mm 2 mps 704 mmHg 49%
    19:00 +13°C° 0 mm 1 mps 704 mmHg 56%
    20:00 +11°C° 0 mm 1 mps 704 mmHg 64%
    21:00 +10°C° 0 mm 1 mps 704 mmHg 64%
    22:00 +10°C° 0 mm 1 mps 704 mmHg 65%
    23:00 +9°C° 0 mm 1 mps 704 mmHg 65%

    Day after tomorrow, 23 April, Monday

    Time Temperature Precipitation Wind Pressure Humidity
    00:00 +9°C° 0 mm 1 mps 704 mmHg 65%
    01:00 +8°C° 0 mm 1 mps 704 mmHg 66%
    02:00 +8°C° 0 mm 1 mps 703 mmHg 66%
    03:00 +8°C° 0 mm 1 mps 703 mmHg 66%
    04:00 +8°C° 0 mm 1 mps 703 mmHg 66%
    05:00 +7°C° 0 mm 1 mps 703 mmHg 67%
    06:00 +9°C° 0 mm 1 mps 703 mmHg 62%
    07:00 +10°C° 0 mm 0 mps 704 mmHg 57%
    08:00 +12°C° 0 mm 0 mps 704 mmHg 53%
    09:00 +15°C° 0 mm 1 mps 704 mmHg 48%
    10:00 +18°C° 0 mm 1 mps 704 mmHg 44%
    11:00 +20°C° 0 mm 1 mps 704 mmHg 40%
    12:00 +20°C° 0 mm 1 mps 704 mmHg 39%
    13:00 +20°C° 0 mm 2 mps 704 mmHg 39%
    14:00 +21°C° 0 mm 2 mps 704 mmHg 38%
    15:00 +21°C° 0 mm 2 mps 703 mmHg 41%
    16:00 +21°C° 0 mm 2 mps 703 mmHg 44%
    17:00 +20°C° 0 mm 2 mps 702 mmHg 46%
    18:00 +18°C° 0.2 mm 2 mps 702 mmHg 56%
    19:00 +16°C° 0.2 mm 2 mps 702 mmHg 67%
    20:00 +14°C° 0.2 mm 2 mps 701 mmHg 77%
    21:00 +13°C° 0.6 mm 2 mps 701 mmHg 81%
    22:00 +13°C° 0.6 mm 2 mps 701 mmHg 84%
    23:00 +13°C° 0.6 mm 2 mps 701 mmHg 88%

    24 April, Tuesday

    Time Temperature Precipitation Wind Pressure Humidity
    00:00 +13°C° 0.6 mm 2 mps 701 mmHg 90%
    01:00 +13°C° 0.6 mm 2 mps 701 mmHg 92%
    02:00 +12°C° 0.6 mm 2 mps 701 mmHg 93%
    03:00 +12°C° 0.4 mm 1 mps 701 mmHg 94%
    04:00 +12°C° 0.4 mm 1 mps 701 mmHg 95%
    05:00 +12°C° 0.4 mm 1 mps 701 mmHg 96%
    06:00 +12°C° 0.2 mm 2 mps 701 mmHg 94%
    07:00 +13°C° 0.2 mm 2 mps 702 mmHg 92%
    08:00 +12°C° 0.2 mm 3 mps 702 mmHg 89%
    09:00 +13°C° 0.2 mm 3 mps 703 mmHg 86%
    10:00 +13°C° 0.2 mm 3 mps 703 mmHg 82%
    11:00 +13°C° 0.2 mm 4 mps 703 mmHg 79%
    12:00 +14°C° 0.1 mm 4 mps 704 mmHg 71%
    13:00 +15°C° 0.1 mm 4 mps 704 mmHg 63%
    14:00 +17°C° 0.1 mm 4 mps 704 mmHg 55%
    15:00 +17°C° 0 mm 4 mps 704 mmHg 55%
    16:00 +17°C° 0 mm 3 mps 703 mmHg 55%
    17:00 +17°C° 0 mm 3 mps 703 mmHg 55%
    18:00 +15°C° 0 mm 2 mps 703 mmHg 62%
    19:00 +13°C° 0 mm 2 mps 703 mmHg 70%
    20:00 +11°C° 0 mm 1 mps 703 mmHg 78%
    21:00 +11°C° 0 mm 1 mps 703 mmHg 78%
    22:00 +10°C° 0 mm 1 mps 703 mmHg 79%
    23:00 +10°C° 0 mm 1 mps 704 mmHg 80%

    25 April, Wednesday

    Time Temperature Precipitation Wind Pressure Humidity
    00:00 +10°C° 0 mm 1 mps 704 mmHg 79%
    01:00 +9°C° 0 mm 2 mps 703 mmHg 78%
    02:00 +9°C° 0 mm 2 mps 703 mmHg 77%
    03:00 +8°C° 0 mm 2 mps 703 mmHg 79%
    04:00 +8°C° 0 mm 2 mps 703 mmHg 81%
    05:00 +8°C° 0 mm 2 mps 703 mmHg 83%
    06:00 +9°C° 0 mm 2 mps 703 mmHg 80%
    07:00 +12°C° 0 mm 2 mps 704 mmHg 77%
    08:00 +12°C° 0 mm 3 mps 704 mmHg 74%
    09:00 +14°C° 0 mm 4 mps 704 mmHg 69%
    10:00 +15°C° 0 mm 4 mps 704 mmHg 63%
    11:00 +17°C° 0 mm 5 mps 704 mmHg 58%
    12:00 +17°C° 0 mm 6 mps 703 mmHg 61%
    13:00 +17°C° 0 mm 6 mps 703 mmHg 64%
    14:00 +17°C° 0 mm 6 mps 703 mmHg 67%
    15:00 +19°C° 0.1 mm 6 mps 702 mmHg 65%
    16:00 +19°C° 0.1 mm 6 mps 702 mmHg 64%
    17:00 +20°C° 0.1 mm 6 mps 702 mmHg 62%
    18:00 +19°C° 0.2 mm 5 mps 701 mmHg 66%
    19:00 +16°C° 0.2 mm 5 mps 701 mmHg 70%
    20:00 +15°C° 0.2 mm 4 mps 701 mmHg 74%
    21:00 +14°C° 1.1 mm 4 mps 701 mmHg 80%
    22:00 +13°C° 1.1 mm 3 mps 702 mmHg 87%
    23:00 +12°C° 1.1 mm 3 mps 702 mmHg 93%

    26 April, Thursday

    Time Temperature Precipitation Wind Pressure Humidity
    00:00 +13°C° 0.7 mm 2 mps 702 mmHg 94%
    01:00 +13°C° 0.7 mm 2 mps 702 mmHg 95%
    02:00 +12°C° 0.7 mm 1 mps 702 mmHg 96%
    03:00 +12°C° 0.2 mm 1 mps 703 mmHg 96%
    04:00 +11°C° 0.2 mm 1 mps 703 mmHg 96%
    05:00 +11°C° 0.2 mm 1 mps 703 mmHg 96%
    06:00 +11°C° 0 mm 1 mps 703 mmHg 93%
    07:00 +12°C° 0 mm 1 mps 703 mmHg 90%
    08:00 +13°C° 0 mm 1 mps 704 mmHg 87%
    09:00 +14°C° 0 mm 1 mps 704 mmHg 83%
    10:00 +15°C° 0 mm 1 mps 704 mmHg 79%
    11:00 +16°C° 0 mm 1 mps 704 mmHg 75%
    12:00 +18°C° 0 mm 1 mps 703 mmHg 71%
    13:00 +18°C° 0 mm 2 mps 703 mmHg 67%
    14:00 +19°C° 0 mm 2 mps 703 mmHg 62%
    15:00 +19°C° 0.6 mm 2 mps 702 mmHg 66%
    16:00 +18°C° 0.6 mm 2 mps 702 mmHg 70%
    17:00 +18°C° 0.6 mm 2 mps 701 mmHg 74%
    18:00 +16°C° 1.7 mm 2 mps 701 mmHg 80%
    19:00 +15°C° 1.7 mm 2 mps 701 mmHg 86%
    20:00 +13°C° 1.7 mm 2 mps 700 mmHg 92%
    21:00 +12°C° 2 mm 2 mps 700 mmHg 93%
    22:00 +10°C° 2 mm 3 mps 701 mmHg 93%
    23:00 +10°C° 2 mm 3 mps 701 mmHg 94%
    Show more